[[{"header":{"parameterUnit":"m.s-1","parameterCategory":1,"la1":30.2991,"la2":30.254,"lo1":-89.0895,"lo2":-89.0444,"dy":0.0017,"dx":0.0017,"nx":28,"ny":28,"refTime":"2025-05-30T03:00:00:Z","depth":0,"parameterNumber":2,"parameterNumberName":"U-component_of_WINDS"},"data":[0,0,0,0,0,0,0,0,0,0,0,0,0,0,0,0,0,0,0,0,0,0,0,0,0,0,0,0,0,0,0,0,0,0,0,0,0,0,0,0,0,0,0,0,0,0,0,0,0,0,0,0,0,0,0,0,0,0,-1.4149,-1.4148,0,-1.4095,-1.4094,-1.4093,-1.3999,-1.3998,-1.3996,-1.3994,-1.3941,-1.3942,-1.3942,0,0,0,0,0,0,0,0,0,0,0,0,0,-1.4173,-1.4173,-1.4149,-1.4148,-1.4147,-1.4095,-1.4094,-1.4093,-1.4,-1.3998,-1.3995,-1.3993,-1.3941,-1.3942,-1.3942,0,0,0,0,0,0,0,0,0,0,0,0,0,-1.4145,-1.4173,-1.4149,-1.4094,-1.4089,-1.4095,-1.4094,-1.4093,-1.4,-1.3997,-1.3995,-1.3992,-1.3941,-1.3942,-1.3942,-1.3997,0,0,-1.3943,-1.3943,0,0,0,0,0,0,0,0,-1.4147,-1.4144,-1.4103,-1.4098,-1.4092,-1.4051,-1.4083,-1.4061,-1.4001,-1.4034,-1.3994,-1.3991,-1.398,-1.3977,-1.3973,-1.3995,-1.3993,-1.3943,-1.3943,-1.3943,-1.3944,0,0,0,0,0,0,0,-1.4149,-1.4146,-1.4127,-1.4103,-1.4096,-1.4073,-1.4066,-1.4078,-1.4023,-1.4031,-1.4024,-1.4019,-1.3977,-1.3973,-1.3971,-1.3992,-1.3943,-1.3943,-1.3944,-1.3944,-1.4055,-1.4058,0,0,0,0,0,0,-1.4159,-1.4148,-1.4129,-1.4126,-1.4113,-1.4075,-1.4067,-1.4067,-1.4022,-1.4013,-1.4021,-1.4014,-1.3973,-1.3971,-1.3969,-1.4029,-1.3943,-1.3944,-1.3944,-1.4053,-1.4056,-1.4059,0,0,0,0,0,0,-1.416,-1.4158,-1.4131,-1.4135,-1.413,-1.4077,-1.4078,-1.4067,-1.4063,-1.4015,-1.4005,-1.4027,-1.3971,-1.3968,-1.399,-1.4026,-1.3944,-1.3944,-1.4049,-1.4054,-1.4058,-1.4153,0,0,0,0,0,0,-1.4161,-1.4159,-1.4179,-1.4136,-1.413,-1.4154,-1.408,-1.4068,-1.4064,-1.4055,-1.4018,-1.4009,-1.3969,-1.399,-1.3991,-1.4025,-1.3945,-1.4046,-1.4051,-1.4056,-1.4146,-1.416,-1.4171,0,0,0,0,0,-1.4162,-1.4209,-1.418,-1.4179,-1.4154,-1.4156,-1.4152,-1.4104,-1.4067,-1.4087,-1.4056,-1.401,-1.4023,-1.3994,-1.3993,-1.4029,-1.4043,-1.405,-1.4056,-1.4141,-1.4157,-1.4171,0,0,0,0,0,0,-1.4258,-1.4202,-1.417,-1.4205,-1.4186,-1.414,-1.4164,-1.4124,-1.4116,-1.4108,-1.4049,-1.4042,-1.4071,-1.4052,-1.4021,-1.4079,-1.4026,-1.4032,-1.409,-1.4106,-1.4118,-1.4122,-1.3945,0,0,0,0,0,-1.4283,-1.4288,-1.424,-1.4275,-1.4267,-1.4217,-1.4216,-1.4181,-1.4159,-1.4151,-1.4121,-1.4103,-1.4102,-1.4103,-1.41,-1.4143,-1.4133,-1.4167,-1.418,-1.419,-1.4196,-1.4217,-1.4231,-1.4079,-1.4079,-1.4079,0,0,-1.4335,-1.4305,-1.4313,-1.4293,-1.4274,-1.4282,-1.4211,-1.4222,-1.4227,-1.4153,-1.4171,-1.4149,-1.4124,-1.4157,-1.417,-1.4142,-1.4236,-1.4198,-1.4207,-1.4207,-1.4224,-1.4239,-1.4252,-1.4083,-1.4083,-1.4082,0,0,-1.4433,-1.4412,-1.4438,-1.442,-1.4392,-1.4358,-1.4365,-1.4325,-1.4307,-1.4325,-1.4269,-1.4274,-1.4275,-1.4259,-1.4251,-1.4343,-1.4301,-1.4344,-1.4409,-1.443,-1.4441,-1.4452,-1.4483,-1.4495,-1.435,-1.4351,-1.4351,0,-1.4502,-1.451,-1.4457,-1.447,-1.4463,-1.4396,-1.4422,-1.4408,-1.4381,-1.4377,-1.4346,-1.4345,-1.4324,-1.4351,-1.4373,-1.437,-1.4375,-1.4348,-1.4444,-1.4454,-1.4462,-1.4492,-1.4504,-1.4356,-1.4355,-1.4355,-1.4354,0,-1.4595,-1.4601,-1.4626,-1.46,-1.4596,-1.4616,-1.4566,-1.4569,-1.4534,-1.4504,-1.4522,-1.4494,-1.4484,-1.4488,-1.4454,-1.451,-1.4494,-1.4454,-1.4399,-1.4483,-1.451,-1.4521,-1.4364,-1.4362,-1.436,-1.4359,0,0,-1.4752,-1.4696,-1.4706,-1.4692,-1.4656,-1.466,-1.4678,-1.4666,-1.4669,-1.4653,-1.4665,-1.4667,-1.4629,-1.4621,-1.4585,-1.4603,-1.4676,-1.4561,-1.4559,-1.4582,-1.4735,-1.4764,-1.4778,-1.4648,-1.465,-1.4652,-1.4736,0,-1.4842,-1.4866,-1.4819,-1.4855,-1.486,-1.4796,-1.481,-1.479,-1.4763,-1.4763,-1.4733,-1.4734,-1.4686,-1.468,-1.4695,-1.4664,-1.4706,-1.4657,-1.4659,-1.4659,-1.4666,-1.4792,-1.4823,-1.4904,-1.4747,-1.4748,-1.475,0,-1.495,-1.4937,-1.4974,-1.4934,-1.4934,-1.4948,-1.4933,-1.4935,-1.4911,-1.4889,-1.4879,-1.4836,-1.485,-1.4798,-1.4816,-1.4784,-1.4782,-1.4767,-1.4769,-1.4767,-1.4709,-1.4792,-1.4929,-1.4941,-1.4766,-1.4765,-1.4763,0,-1.5059,-1.5052,-1.5072,-1.5063,-1.5018,-1.5029,-1.5011,-1.4984,-1.498,-1.4967,-1.4964,-1.4954,-1.4948,-1.4942,-1.4897,-1.4863,-1.4921,-1.4865,-1.4903,-1.4904,-1.4917,-1.4917,-1.5055,-1.4918,-1.4918,-1.4918,-1.4917,0,-1.5164,-1.5188,-1.512,-1.5133,-1.5159,-1.5104,-1.5131,-1.5107,-1.5083,-1.509,-1.5034,-1.5042,-1.4983,-1.4985,-1.495,-1.497,-1.4968,-1.4951,-1.4942,-1.4956,-1.4958,-1.4953,-1.4945,-1.4921,-1.492,-1.4919,-1.4919,0,-1.529,-1.5246,-1.5263,-1.5219,-1.5208,-1.5229,-1.5191,-1.5201,-1.5169,-1.5179,-1.5178,-1.5129,-1.5128,-1.5083,-1.5073,-1.5049,-1.5083,-1.5064,-1.5091,-1.5084,-1.5124,-1.5121,-1.5263,-1.5279,-1.5134,-1.5135,-1.5136,0,-1.5359,-1.5376,-1.5333,-1.5333,-1.5317,-1.5318,-1.5313,-1.5261,-1.5258,-1.5231,-1.5244,-1.5238,-1.523,-1.5231,-1.5195,-1.5186,-1.5165,-1.5216,-1.5164,-1.5177,-1.5165,-1.5164,-1.5165,-1.5227,-1.5229,-1.523,-1.5232,0,-1.5486,-1.5463,-1.5457,-1.5445,-1.544,-1.5427,-1.5411,-1.5415,-1.5357,-1.5357,-1.5354,-1.5348,-1.5336,-1.5331,-1.5316,-1.5297,-1.5255,-1.5248,-1.5256,-1.527,-1.5285,-1.5276,-1.512,-1.5245,-1.5244,-1.5243,-1.5242,-1.5241,-1.5585,-1.5596,-1.5568,-1.5563,-1.5545,-1.5532,-1.5538,-1.5507,-1.5504,-1.5489,-1.5459,-1.5461,-1.5435,-1.541,-1.5395,-1.5396,-1.5371,-1.5383,-1.5386,-1.5389,-1.5396,-1.5286,-1.5394,-1.5393,-1.5393,-1.5392,-1.5392,0,-1.5708,-1.5686,-1.5682,-1.5661,-1.5658,-1.5617,-1.5597,-1.5597,-1.5599,-1.5579,-1.5571,-1.5568,-1.5562,-1.5525,-1.5515,-1.5523,-1.5503,-1.5522,-1.552,-1.5517,-1.5421,-1.5414,-1.5538,-1.5538,-1.5538,-1.5538,-1.5538,-1.5538,-1.5771,-1.5788,-1.5762,-1.577,-1.5748,-1.5748,-1.574,-1.5727,-1.571,-1.5708,-1.5702,-1.5678,-1.5651,-1.5638,-1.5631,-1.562,-1.5619,-1.5644,-1.5627,-1.5538,-1.5524,-1.551,-1.5503,-1.5644,-1.5645,-1.5722,-1.5723,-1.5724]},{"header":{"parameterUnit":"m.s-1","parameterCategory":1,"la1":30.2991,"la2":30.254,"lo1":-89.0895,"lo2":-89.0444,"dy":0.0017,"dx":0.0017,"nx":28,"ny":28,"refTime":"2025-05-30T03:00:00:Z","depth":0,"parameterNumber":3,"parameterNumberName":"V-component_of_WINDS"},"data":[0,0,0,0,0,0,0,0,0,0,0,0,0,0,0,0,0,0,0,0,0,0,0,0,0,0,0,0,0,0,0,0,0,0,0,0,0,0,0,0,0,0,0,0,0,0,0,0,0,0,0,0,0,0,0,0,0,0,2.4867,2.4867,0,2.4901,2.4901,2.4902,2.4942,2.4943,2.4943,2.4944,2.4977,2.4977,2.4978,0,0,0,0,0,0,0,0,0,0,0,0,0,2.4836,2.4837,2.4867,2.4867,2.4868,2.4901,2.4901,2.4902,2.4942,2.4943,2.4943,2.4944,2.4977,2.4977,2.4978,0,0,0,0,0,0,0,0,0,0,0,0,0,2.4858,2.4837,2.4867,2.4892,2.4894,2.4901,2.4901,2.4902,2.4942,2.4943,2.4944,2.4945,2.4977,2.4977,2.4978,2.4962,0,0,2.4979,2.4979,0,0,0,0,0,0,0,0,2.4857,2.4859,2.4888,2.489,2.4893,2.4918,2.4903,2.4922,2.4942,2.4924,2.4944,2.4945,2.4957,2.4959,2.4963,2.4963,2.4965,2.4979,2.4979,2.498,2.498,0,0,0,0,0,0,0,2.4855,2.4858,2.488,2.4888,2.4891,2.4901,2.4905,2.4907,2.4934,2.4925,2.4928,2.4932,2.4958,2.4962,2.4964,2.4965,2.4979,2.4979,2.498,2.498,2.4958,2.4957,0,0,0,0,0,0,2.485,2.4856,2.4879,2.4881,2.4877,2.4901,2.4906,2.4909,2.4935,2.4939,2.4931,2.4934,2.4961,2.4964,2.4965,2.4951,2.498,2.498,2.498,2.4959,2.4958,2.4957,0,0,0,0,0,0,2.4849,2.4852,2.4878,2.487,2.4874,2.4901,2.4904,2.4909,2.4914,2.4939,2.4944,2.493,2.4962,2.4965,2.4963,2.4952,2.498,2.4981,2.496,2.4959,2.4957,2.492,0,0,0,0,0,0,2.4848,2.4851,2.4845,2.4869,2.4874,2.4875,2.4903,2.4909,2.4915,2.4918,2.494,2.4944,2.4963,2.4962,2.4964,2.4953,2.4981,2.4961,2.4959,2.4958,2.4922,2.4917,2.4913,0,0,0,0,0,2.4847,2.4832,2.4844,2.4847,2.4867,2.4874,2.4877,2.4899,2.4913,2.4908,2.4925,2.4943,2.4954,2.4962,2.4964,2.4953,2.4962,2.496,2.4958,2.4924,2.4918,2.4913,0,0,0,0,0,0,2.4804,2.4835,2.4849,2.4842,2.4855,2.4881,2.4874,2.4892,2.4901,2.4904,2.4931,2.4936,2.4932,2.4942,2.4951,2.4941,2.4961,2.4959,2.4934,2.4929,2.4925,2.4922,2.4981,0,0,0,0,0,2.4794,2.4797,2.4824,2.4815,2.4821,2.4846,2.485,2.4867,2.4882,2.4887,2.4903,2.4917,2.4923,2.4927,2.4934,2.4924,2.4931,2.4918,2.4914,2.491,2.4908,2.4907,2.4902,2.4951,2.4951,2.4951,0,0,2.4772,2.479,2.479,2.4807,2.4819,2.4822,2.4851,2.4852,2.4855,2.4887,2.4887,2.49,2.4917,2.4912,2.4911,2.4921,2.4897,2.4908,2.4905,2.4905,2.4904,2.49,2.4896,2.4949,2.495,2.495,0,0,2.4734,2.4748,2.4743,2.4755,2.4774,2.4792,2.4791,2.4815,2.4825,2.4826,2.4851,2.4855,2.4865,2.4877,2.4884,2.4855,2.4874,2.4857,2.4834,2.4832,2.4828,2.4825,2.4816,2.4813,2.4855,2.4855,2.4855,0,2.4705,2.4711,2.4737,2.4739,2.4746,2.4777,2.4773,2.4784,2.4803,2.4808,2.482,2.4836,2.4849,2.4848,2.4842,2.4846,2.4847,2.4854,2.4827,2.4824,2.4821,2.4813,2.481,2.4853,2.4853,2.4853,2.4854,0,2.4675,2.4679,2.4673,2.4693,2.47,2.4698,2.4725,2.4729,2.4746,2.4763,2.4765,2.4783,2.4796,2.4797,2.4812,2.48,2.4806,2.4821,2.4841,2.4814,2.4807,2.4804,2.485,2.4851,2.4851,2.4852,0,0,2.4608,2.4647,2.4644,2.4655,2.468,2.4683,2.4684,2.4698,2.4702,2.4715,2.4717,2.4727,2.4743,2.4751,2.4769,2.4767,2.4746,2.4784,2.4785,2.4777,2.4736,2.4724,2.472,2.4759,2.4759,2.4758,2.4735,0,2.4576,2.458,2.4605,2.4602,2.4607,2.4639,2.464,2.4655,2.4672,2.4679,2.4698,2.4705,2.4724,2.473,2.473,2.4749,2.4738,2.4751,2.4762,2.4762,2.4757,2.4716,2.4703,2.468,2.4732,2.4732,2.4731,0,2.4538,2.4552,2.4549,2.4577,2.458,2.4581,2.4597,2.4603,2.4623,2.4636,2.4647,2.4668,2.4672,2.4691,2.4698,2.4706,2.4712,2.4723,2.4722,2.4724,2.4745,2.4717,2.4673,2.4669,2.4727,2.4727,2.4728,0,2.4492,2.4509,2.4511,2.4519,2.4551,2.4551,2.4565,2.4586,2.4593,2.4608,2.4614,2.4628,2.4635,2.4646,2.4672,2.4683,2.4676,2.4697,2.4687,2.4687,2.4684,2.4684,2.464,2.4687,2.4687,2.4687,2.4687,0,2.4453,2.445,2.4491,2.4491,2.4491,2.4521,2.4519,2.4535,2.4554,2.456,2.4588,2.4592,2.4625,2.4634,2.4653,2.4657,2.466,2.4671,2.4676,2.4668,2.4667,2.4673,2.4675,2.4686,2.4687,2.4687,2.4687,0,2.44,2.4427,2.4431,2.4463,2.4471,2.4469,2.4496,2.4499,2.4519,2.4525,2.4528,2.4559,2.4571,2.4598,2.4616,2.463,2.4629,2.4638,2.4623,2.4626,2.4616,2.4616,2.4574,2.4571,2.4619,2.4619,2.4618,0,2.4373,2.4373,2.4405,2.4412,2.4424,2.4434,2.4443,2.4473,2.4481,2.4506,2.4506,2.4521,2.4534,2.4552,2.4576,2.4591,2.4602,2.4586,2.4604,2.4597,2.4603,2.4603,2.4604,2.4582,2.4581,2.458,2.458,0,2.4324,2.4338,2.435,2.4368,2.4378,2.4393,2.441,2.4413,2.4448,2.4456,2.447,2.448,2.4501,2.4516,2.4536,2.455,2.4571,2.4575,2.4573,2.4565,2.4557,2.4563,2.4612,2.4575,2.4575,2.4576,2.4576,2.4576,2.4284,2.4286,2.431,2.4324,2.434,2.4356,2.4361,2.4383,2.4394,2.4414,2.4432,2.4444,2.4467,2.4496,2.451,2.4521,2.4531,2.4529,2.4528,2.4527,2.4525,2.4556,2.4524,2.4524,2.4525,2.4525,2.4525,0,2.4237,2.4255,2.4267,2.4291,2.4302,2.4323,2.4343,2.4351,2.4362,2.4382,2.4396,2.4413,2.4428,2.4455,2.4473,2.4476,2.4487,2.448,2.448,2.4484,2.4514,2.4514,2.4472,2.4472,2.4472,2.4472,2.4472,2.4472,2.4214,2.4219,2.4237,2.4251,2.427,2.4283,2.4293,2.4309,2.4325,2.4343,2.4357,2.4375,2.4398,2.4419,2.4434,2.4442,2.4448,2.4438,2.4449,2.4476,2.4481,2.4486,2.4486,2.4439,2.4439,2.4418,2.4418,2.4418]}]]